Key West, FL

12:34 PM EST on February 23, 2017 (GMT -0500)
Key West International

Weather History for KEYW - March, 2014

Change the Weather History Date:

Thursday, March 13, 2014

  Actual Average Record
Temperature  
Mean Temperature 72 °F 73 °F  
Max Temperature 75 °F 78 °F 86 °F (1956)
Min Temperature 70 °F 68 °F 55 °F (1959)
Degree Days  
Heating Degree Days 0 0  
Month to date heating degree days 0  
Since 1 July heating degree days 66  
Cooling Degree Days 8 8  
Month to date cooling degree days 103  
Year to date cooling degree days 451  
Growing Degree Days 22 (Base 50)    
Moisture  
Dew Point 62 °F    
Average Humidity 69    
Maximum Humidity 87    
Minimum Humidity 47    
Precipitation  
Precipitation 0.01 in 0.07 in 2.32 in (1889)
Month to date precipitation 0.95  
Year to date precipitation 4.48  
Snow  
Snow 0.00 in - - ()
Month to date snowfall  
Since 1 July snowfall  
Snow Depth -    
Sea Level Pressure  
Sea Level Pressure 30.02 in    
Wind  
Wind Speed 14 mph (North)    
Max Wind Speed 20 mph    
Max Gust Speed 28 mph    
Visibility 10 miles    
Events      
T = Trace of Precipitation, MM = Missing Value Source: NWS Daily Summary

Daily Weather History Graph

Daily Weather History Graph

Search for Another Location

Airport or City:

Trip Planner

Search our weather history database for the weather conditions in past years. The results will help you decide how hot, cold, wet, or windy it might be!

Date:

Astronomy

Mar. 13, 2014 Rise Set
Actual Time 7:38 AM EDT 7:35 PM EDT
Civil Twilight 7:15 AM EDT 7:57 PM EDT
Nautical Twilight 6:48 AM EDT 8:24 PM EDT
Astronomical Twilight 6:22 AM EDT 8:50 PM EDT
Moon 5:12 PM EDT (3/13) 5:29 AM EDT (3/13)
Length of Visible Light 12h 42m
Length of Day
11h 57m
Waxing Gibbous, 91% of the Moon is Illuminated
Mar 13
Waxing Gibbous
Mar 16
Full
Mar 23
Last Quarter
Mar 30
New
Apr 7
First Quarter

Hourly Weather History & Observations

Time (EDT) Temp. Dew Point Humidity Pressure Visibility Wind Dir Wind Speed Gust Speed Precip Events Conditions
12:53 AM 72.0 °F 68.0 °F 87% 29.91 in 10.0 mi North 10.4 mph - 0.01 in   Scattered Clouds
1:53 AM 73.9 °F 69.1 °F 85% 29.89 in 10.0 mi NNW 12.7 mph - N/A   Overcast
2:53 AM 75.0 °F 69.1 °F 82% 29.89 in 10.0 mi NW 15.0 mph - N/A   Overcast
3:53 AM 75.0 °F 69.1 °F 82% 29.88 in 10.0 mi NW 16.1 mph - N/A   Overcast
4:53 AM 73.9 °F 69.1 °F 85% 29.90 in 10.0 mi NNW 12.7 mph - N/A   Mostly Cloudy
5:26 AM 73.9 °F 68.0 °F 82% 29.91 in 10.0 mi NNW 13.8 mph 19.6 mph N/A   Overcast
5:53 AM 73.0 °F 68.0 °F 84% 29.92 in 10.0 mi NNW 16.1 mph 24.2 mph N/A   Overcast
6:41 AM 73.0 °F 64.9 °F 76% 29.95 in 10.0 mi NNW 16.1 mph 21.9 mph N/A   Overcast
6:53 AM 73.0 °F 64.9 °F 76% 29.96 in 10.0 mi NNW 15.0 mph 21.9 mph N/A   Overcast
7:53 AM 72.0 °F 64.9 °F 78% 29.99 in 10.0 mi North 16.1 mph 26.5 mph N/A   Overcast
8:53 AM 73.0 °F 63.0 °F 71% 30.04 in 10.0 mi NNW 16.1 mph - N/A   Partly Cloudy
9:53 AM 73.9 °F 63.0 °F 68% 30.06 in 10.0 mi North 17.3 mph 25.3 mph N/A   Scattered Clouds
10:53 AM 75.0 °F 62.1 °F 64% 30.07 in 10.0 mi North 17.3 mph 26.5 mph N/A   Clear
11:53 AM 73.0 °F 63.0 °F 71% 30.08 in 10.0 mi NNW 17.3 mph 26.5 mph N/A   Partly Cloudy
12:53 PM 73.0 °F 62.1 °F 68% 30.08 in 10.0 mi North 16.1 mph 24.2 mph N/A   Partly Cloudy
1:53 PM 73.0 °F 60.1 °F 64% 30.06 in 10.0 mi North 17.3 mph - N/A   Clear
2:53 PM 72.0 °F 59.0 °F 64% 30.05 in 10.0 mi NNW 16.1 mph 26.5 mph N/A   Clear
3:53 PM 72.0 °F 57.0 °F 59% 30.04 in 10.0 mi North 19.6 mph 27.6 mph N/A   Clear
4:53 PM 71.1 °F 59.0 °F 66% 30.04 in 10.0 mi North 17.3 mph 27.6 mph N/A   Clear
5:53 PM 72.0 °F 59.0 °F 64% 30.04 in 10.0 mi North 16.1 mph 21.9 mph N/A   Clear
6:53 PM 71.1 °F 59.0 °F 66% 30.06 in 10.0 mi North 12.7 mph - N/A   Clear
7:53 PM 70.0 °F 57.9 °F 65% 30.08 in 10.0 mi North 12.7 mph - N/A   Clear
8:53 PM 70.0 °F 57.0 °F 63% 30.09 in 10.0 mi North 9.2 mph 19.6 mph N/A   Clear
9:53 PM 70.0 °F 57.0 °F 63% 30.11 in 10.0 mi NNE 11.5 mph - N/A   Clear
10:53 PM 72.0 °F 55.9 °F 57% 30.13 in 10.0 mi NE 9.2 mph 18.4 mph N/A   Clear
11:53 PM 70.0 °F 52.0 °F 53% 30.14 in 10.0 mi ENE 10.4 mph - N/A   Clear